365  
ASUS42 KTBW 011317  
RWRFL  
FLORIDA REGIONAL WEATHER ROUNDUP  
NATIONAL WEATHER SERVICE TAMPA BAY RUSKIN FL  
900 AM EDT SAT AUG 01 2015  
 
NOTE: "FAIR" INDICATES FEW OR NO CLOUDS BELOW 12,000 FEET WITH NO  
SIGNIFICANT WEATHER AND/OR S TO VISIBILITY
.  
 
 
FLZ001>010-012>015-112-114-115-011400-  
PANHANDLE FLORIDA  
 
CITY SKY/WX TMP DP RH WIND PRES REMARKS
 
PENSACOLA PTSUNNY 77 75 93 N6 29.88R  
PENSACOLA NAS SUNNY 79 75 87 N8 29.86S  
MILTON NAS CLOUDY 76 74 93 N6 29.89  
CRESTVIEW MOSUNNY 78 75 90 NE6 29.90S  
DUKE FIELD FAIR 76 75 95 NE7 29.88R  
VALPARAISO PTSUNNY 80 74 82 NE9 29.87R  
MARY ESTHER SUNNY 80 73 81 NE9 29.86R  
TRI COUNTY FAIR 78 74 87 VRB3 29.90S  
PANAMA CITY FAIR 79 74 84 N9 29.86S  
TYNDALL AFB CLOUDY 77 77 100 NE6 29.87R  
APALACHICOLA PTSUNNY 84 78 82 NE7 29.86R HX 95  
 
STATION/POSITION SKY/WX TEMP WIND PRES WAVE SWELL
 
AIR SEA DIR/SP/G HT/PER HT/PER  
(F) (DEG/KT/KT) (MB) (FT/S) (FT/S)  
30.1N 87.6W 81 85 30/ 12/ 14 1010.2S 1/ 2  
29.2N 88.2W 85 87 260/ 4/ 4 1011.6R 1/ 4  
28.8N 86.0W 77 86 280/ 8/ 17 1012.3R 4/ 7 3/ 7  
PANAMA CITY BEAC 77 85 20/ 6/ 8 1010.8F  
CAPE SAN BLAS NOT AVBL  
TOWER C 82 230/ 9/ 10 1011.5R  
28.5N 84.5W 79 85 250/ 19/ 29 1012.4R 7/ 7 2/12  
 

 
FLZ011-016>038-118-127-128-134-139-239-011400-  
NORTH FLORIDA  
 
CITY SKY/WX TMP DP RH WIND PRES REMARKS
 
MARIANNA CLOUDY 75 75 100 NE6 29.89S  
TALLAHASSEE PTSUNNY 81 76 84 NE5 29.87S  
PERRY MOSUNNY 79 79 100 SE6 29.89R  
CROSS CITY N/A 75 75 100 SE3 29.91R  
LAKE CITY FAIR 79 75 89 S6 29.92S  
GAINESVILLE CLOUDY 76 74 93 S7 29.94R  
MAYPORT NAS MOSUNNY 80 74 81 S10 29.93F  
JACKSONVILLE PTSUNNY 79 74 84 S10 29.92F  
JAX NAS PTSUNNY 84 72 67 S12 29.94S  
JAX CRAIG MOSUNNY 81 73 76 S7 29.93S  
JAX CECIL MOSUNNY 81 73 78 CALM 29.93S  
FERNANDINA BEA CLOUDY 82 73 74 SW10 29.92S  
ST AUGUSTINE CLOUDY 79 73 83 SW9 29.96S  
 
STATION/POSITION SKY/WX TEMP WIND PRES WAVE SWELL
 
AIR SEA DIR/SP/G HT/PER HT/PER  
(F) (DEG/KT/KT) (MB) (FT/S) (FT/S)  
SHELL POINT 78 10/ 3/ 6 N/A  
KEATON BEACH 79 180/ 11/ 14 1012.3R  
CEDAR KEY 83 230/ 18/ 22 1013.2R  
FERNANDINA 78 86 200/ 9/ 11 1012.8R  
30.7N 81.3W 82 N/A 3/ 5  
MAYPORT 78 84 200/ 7/ 12 1014.0R  
31.4N 80.9W 80 82 240/ 10/ 12 1013.6R 3/ 6 2/ 6  
ST AUGUSTINE 77 81 190/ 10/ 12 1015.0R  
 

 
FLZ040-043>046-052-053-057-058-063-144-011400-  
INTERIOR CENTRAL FLORIDA  
 
CITY SKY/WX TMP DP RH WIND PRES REMARKS
 
OCALA PTSUNNY 73 73 100 S7 29.95R  
THE VILLAGES N/A 79 79 100 SE9 29.87R  
LEESBURG PTSUNNY 79 74 84 S8 29.98R  
SANFORD CLOUDY 78 72 81 S9 29.97S  
ORLANDO EXEC CLOUDY 78 73 84 S7 29.98S  
ORLANDO INTL CLOUDY 77 71 82 S10 29.99S  
KISSIMMEE CLOUDY 77 72 83 S9 30.00R  
WINTER HAVEN CLOUDY 78 71 79 S9 30.00R  
LAKELAND PTSUNNY 75 73 94 S8 29.99R  
BARTOW CLOUDY 75 72 88 S7 30.00R  
OKEECHOBEE CLOUDY N/A N/A N/A CALM 30.01R  
 

 
FLZ041-047-054-059-064-141-147-011400-  
EAST CENTRAL FLORIDA  
 
CITY SKY/WX TMP DP RH WIND PRES REMARKS
 
ORMOND BEACH PTSUNNY 77 73 88 SW7 29.96S  
DAYTONA BEACH PTSUNNY 78 73 84 S8 29.97S  
DELAND N/A 79 73 83 CALM 29.98S  
JFK SPACE CTR PTSUNNY 77 69 75 SW8 29.98R  
TITUSVILLE PTSUNNY 75 72 88 SW14 29.99S  
CAPE CANAVERAL PTSUNNY 78 71 78 SW7 29.98S  
PATRICK AFB CLOUDY 77 70 79 S9 29.98S  
MELBOURNE CLOUDY 76 70 82 SW6 29.99S  
VERO BEACH CLOUDY 76 70 82 SW5 29.99R  
FT PIERCE CLOUDY 75 72 90 W6 30.00R  
STUART RAIN 73 72 94 SE7 30.02R  
 
STATION/POSITION SKY/WX TEMP WIND PRES WAVE SWELL
 
AIR SEA DIR/SP/G HT/PER HT/PER  
(F) (DEG/KT/KT) (MB) (FT/S) (FT/S)  
28.5N 80.2W 79 83 200/ 16/ 17 1015.2F  
28.9N 78.5W 81 84 250/ 23/ 27 1015.2S  
TRIDENT PIER 77 78 200/ 7/ 9 1016.0R  
28.4N 80.5W 78 N/A 2/ 4  
27.5N 80.2W 76 N/A 1/10  
 

 
FLZ050-056-061-142-242-148-248-149-249-151-251-155-255-  
160-260-011400-  
WEST CENTRAL FLORIDA  
 
CITY SKY/WX TMP DP RH WIND PRES REMARKS
 
CRYSTAL RIVER CLOUDY 77 73 88 SE5 29.94R  
INVERNESS CLOUDY 77 75 94 S7 29.96R  
BROOKSVILLE CLOUDY 78 76 93 S8 29.97R  
ZEPHYRHILLS CLOUDY 73 73 100 CALM 29.98S  
CLEARWATER PTSUNNY 82 76 81 SE8 29.96R  
TAMPA INTL CLOUDY 80 76 87 S8 29.97R  
TAMPA EXEC CLOUDY 79 73 83 S5 29.98R  
PLANT CITY CLOUDY 77 75 94 S6 30.00S  
MACDILL AFB MOSUNNY 79 79 100 S9 29.97R  
PETER O KNIGHT CLOUDY 81 77 89 S10 29.98R  
ST PETERSBURG CLOUDY 82 78 88 S13 29.95R  
SARASOTA MOSUNNY 80 76 87 SE7 29.96R  
VENICE LGT RAIN 79 77 94 SE7 29.99R  
 
STATION/POSITION SKY/WX TEMP WIND PRES WAVE SWELL
 
AIR SEA DIR/SP/G HT/PER HT/PER  
(F) (DEG/KT/KT) (MB) (FT/S) (FT/S)  
CEDAR KEY 83 230/ 18/ 22 1013.2R  
28.5N 84.5W 79 85 250/ 19/ 29 1012.4R 7/ 7 2/12  
27.3N 84.2W 84 N/A 5/ 7  
CLEARWATER BEACH 83 83 200/ 21/ 24 1014.0S  
MIDDLE TAMPA BAY 79 180/ 10/ 11 1014.8R  
VENICE 80 85 120/ 7/ 8 1014.6R  
 

 
FLZ066-069-070-075>078-162-262-165-265-011400-  
SOUTHWEST FLORIDA AND KEYS  
 
CITY SKY/WX TMP DP RH WIND PRES REMARKS
 
PUNTA GORDA CLOUDY 77 75 93 SE6 30.00R  
FT MYERS CLOUDY 78 74 87 SE3 29.98R  
SOUTHWEST INTL CLOUDY 78 74 87 SE3 29.99R  
NAPLES CLOUDY 81 75 82 SE7 29.98R  
MARCO ISLAND MOSUNNY 79 72 78 E5 29.98S  
MARATHON PTSUNNY 88 78 72 SE7 30.00R HX 101  
KEY WEST NAS PTSUNNY 87 75 67 SE12 29.99S HX 96  
KEY WEST INTL MOSUNNY 86 76 71 SE12 29.99S HX 96  
 
STATION/POSITION SKY/WX TEMP WIND PRES WAVE SWELL
 
AIR SEA DIR/SP/G HT/PER HT/PER  
(F) (DEG/KT/KT) (MB) (FT/S) (FT/S)  
VENICE 80 85 120/ 7/ 8 1014.6R  
NAPLES 85 1016.1R  
26.0N 85.6W 84 84 210/ 14/ 16 1013.7R 3/ 5  
DRY TORTUGAS 85 170/ 12/ 15 1015.0R  
NW FL BAY 87 170/ 7/ 10 1015.6  
SAND KEY 85 160/ 14/ 16 1015.5R  
SOMBRERO KEY 85 150/ 12/ 13 1016.5R  
LONG KEY 85 88 160/ 11/ 13 1016.6R  
MOLASSES REEF 85 87 150/ 10/ 12 1016.3R  
 

 
FLZ067-068-071>074-168-172>174-011400-  
SOUTHEAST FLORIDA  
 
CITY SKY/WX TMP DP RH WIND PRES REMARKS
 
W PALM BEACH CLOUDY 78 74 87 SE9 30.00S  
FT LAUDER-EXEC CLOUDY 80 72 76 CALM 30.01R  
FT LAUDERDALE CLOUDY 81 74 79 E6 30.00R  
POMPANO BEACH CLOUDY 81 73 76 NE3 30.01R  
PEMBROKE PINES CLOUDY 81 72 74 E5 30.02R  
OPA LOCKA CLOUDY 81 72 74 E3 30.01R  
MIAMI CLOUDY 82 73 74 CALM 30.01R  
WEST KENDALL PTSUNNY 82 77 84 SE3 30.01R  
HOMESTEAD PTSUNNY 82 76 83 SE3 30.01R  
 
STATION/POSITION SKY/WX TEMP WIND PRES WAVE SWELL
 
AIR SEA DIR/SP/G HT/PER HT/PER  
(F) (DEG/KT/KT) (MB) (FT/S) (FT/S)  
PORT EVERGLADES 82 50/ 4/ 5 1016.0R  
VIRGINIA KEY 84 85 170/ 5/ 6 1015.7R  
LAKE WORTH 78 82 20/ 2/ 3 1015.5S  
SETTLEMENT POINT 85 140/ 8/ 10 1017.4R  
 

 
 
CLICK HERE TO GO TO PREVIOUS BULLETINS.

The Nexlab FL Page Main Text Page